Location: Palmerston North
(40.3500°S, 175.6170°E)
Time: 21:21:32
(UTC+13:00)

ERS-1 Rocket - Pass Details

Date: 24 January 2019
Orbit: 754 x 757 km, 98.5° (Epoch: 18 October)

Event Time Altitude Azimuth Distance (km) Brightness Sun altitude
Rises 22:36:04 0° 153° (SSE) 3,246 6.5 -18.0°
Reaches altitude 10° 22:38:49 10° 139° (SE) 2,311 5.6 -18.4°
Enters shadow 22:42:48 24° 88° (E) 1,538 4.2 -18.9°
